This is the latest recevied weather packets stored in our database for station/object EA7OC-10. If no packets are shown the sender has not sent any weather packets the latest 10 day(s).
| Time | Temp. | Humidity | Pressure | Rain* | Wind** | Luminosity | Snow |
|---|---|---|---|---|---|---|---|
| 1787950361 | 28.89° C | 29% | 1019.1 hPa | - | - | - | - |
| 1787949461 | 28.33° C | 29% | 1019.2 hPa | - | - | - | - |
| 1787948561 | 28.33° C | 30% | 1019.1 hPa | - | - | - | - |
| 1787947661 | 28.89° C | 30% | 1019 hPa | - | - | - | - |
| 1787946760 | 28.89° C | 30% | 1018.8 hPa | - | - | - | - |
| 1787945860 | 28.89° C | 30% | 1018.6 hPa | - | - | - | - |
| 1787944960 | 28.89° C | 30% | 1018.5 hPa | - | - | - | - |
| 1787944060 | 30° C | 30% | 1018.3 hPa | - | - | - | - |
| 1787943160 | 31.11° C | 29% | 1018.2 hPa | - | - | - | - |
| 1787942260 | 33.33° C | 29% | 1018.2 hPa | - | - | - | - |
| 1787941360 | 36.67° C | 29% | 1018.2 hPa | - | - | - | - |
| 1787940460 | 38.33° C | 30% | 1018.2 hPa | - | - | - | - |
| 1787939560 | 38.89° C | 30% | 1018.2 hPa | - | - | - | - |
| 1787938659 | 40° C | 31% | 1018.3 hPa | - | - | - | - |
| 1787937759 | 40° C | 31% | 1018.3 hPa | - | - | - | - |
| 1787936859 | 40.56° C | 31% | 1018.4 hPa | - | - | - | - |
| 1787935959 | 40.56° C | 31% | 1018.5 hPa | - | - | - | - |
| 1787935059 | 41.11° C | 31% | 1018.5 hPa | - | - | - | - |
| 1787934159 | 41.67° C | 32% | 1018.5 hPa | - | - | - | - |
| 1787933259 | 41.11° C | 32% | 1018.5 hPa | - | - | - | - |
| 1787932359 | 40.56° C | 32% | 1018.6 hPa | - | - | - | - |
| 1787931459 | 40.56° C | 32% | 1018.6 hPa | - | - | - | - |
| 1787930558 | 40.56° C | 32% | 1018.8 hPa | - | - | - | - |
| 1787929658 | 41.11° C | 32% | 1018.8 hPa | - | - | - | - |
| 1787928767 | 41.11° C | 33% | 1019 hPa | - | - | - | - |
* Rain since midnight (hover to see other rain measurements)
** Current wind speed in m/s (hover to see current wind gust speed)